Simultaneous Nadir Overpasses (SNOs) Predictions

Prediction of SNOs between AQUA and NOAA-19 Satellite Orbit:

Table of predicted SNOs for the next 14.0 days since TLE Epoch: 11/13/2021
Index Date (AQUA) Time (AQUA) Lat,Lon (AQUA) SZA (AQUA ) Date (NOAA-19) Time (NOAA-19) Lat,Lon (NOAA-19) SZA (NOAA-19 ) Distance(km) Time Diff (sec)
1 11/13/2021 14:37:01 78.32, -59.35 96.81 11/13/2021 14:36:41 78.31, -59.26 96.80 2.30 20
2 11/13/2021 15:26:28 -78.37, 108.02 83.12 11/13/2021 15:27:40 -78.44, 108.86 83.10 20.25 72
3 11/15/2021 20:10:44 -78.28, 37.41 82.66 11/15/2021 20:09:50 -78.27, 37.30 82.65 2.90 54
4 11/15/2021 21:00:12 78.31,-155.09 97.39 11/15/2021 21:00:45 78.33,-155.02 97.40 3.52 33
5 11/18/2021 02:33:56 -78.31, -58.56 82.06 11/18/2021 02:33:55 -78.28, -58.58 82.09 4.12 1
6 11/20/2021 08:07:40 78.26, 38.25 98.41 11/20/2021 08:06:56 78.27, 38.21 98.42 1.02 44
7 11/20/2021 08:57:07 -78.31,-154.35 81.53 11/20/2021 08:57:59 -78.32,-154.24 81.54 2.55 52
8 11/22/2021 13:41:21 -78.15, 135.38 81.25 11/22/2021 13:40:10 -78.10, 133.95 81.20 33.11 71
9 11/22/2021 14:30:51 78.27, -57.58 98.92 11/22/2021 14:31:00 78.29, -57.58 98.94 2.25 9
10 11/24/2021 20:04:34 -78.25, 39.11 80.66 11/24/2021 20:04:10 -78.28, 39.15 80.62 3.92 24
11 11/24/2021 20:54:02 78.29,-153.44 99.40 11/24/2021 20:55:05 78.28,-153.60 99.39 3.53 63
12 11/27/2021 01:38:18 78.22, 135.80 99.75 11/27/2021 01:37:10 78.26, 135.84 99.80 3.93 68



Historial Predications of SNOs between AQUA and NOAA-19
